Orbital elements of GLOBALSTAR M094
| Launched | 5 February 2013 |
| Flight ended | – |
| Launch site | Tyuratam Missile and Space Center, Kazakhstan (Also known as Baikonur Cosmodrome) |
| Owner | Globalstar |
| NORAD ID | 39074 |
| Date fetched |
Epoch osculation |
Inc. [°] |
Ecc. | RA asc node [hr] |
Arg Peri. [°] |
Mean anom [°] |
Mean motion [rev/day] |
Abs. mag |
| Date fetched |
Epoch osculation |
Inc. [°] |
Ecc. | RA asc node [hr] |
Arg Peri. [°] |
Mean anom [°] |
Mean motion [rev/day] |
Abs. mag |
| 2026 May 01 17:56 | 2026 May 01 11:55:10 | 51.9961 | 0.00006 | 19.5306 | 120.6902 | 239.4026 | 12.62268 | 7.500 |
| 2026 Apr 30 17:56 | 2026 Apr 30 11:12:51 | 51.9962 | 0.00006 | 19.7395 | 119.6404 | 239.4026 | 12.62268 | 7.500 |
| 2026 Apr 29 17:57 | 2026 Apr 29 12:24:33 | 51.9962 | 0.00006 | 19.9324 | 118.3180 | 239.4026 | 12.62268 | 7.500 |
| 2026 Apr 28 17:56 | 2026 Apr 28 11:42:14 | 51.9961 | 0.00006 | 20.1414 | 116.6387 | 239.4026 | 12.62268 | 7.500 |
| 2026 Apr 27 17:58 | 2026 Apr 27 05:17:50 | 51.9962 | 0.00006 | 20.3985 | 114.4848 | 239.4026 | 12.62268 | 7.500 |
| 2026 Apr 26 17:58 | 2026 Apr 26 12:11:36 | 51.9962 | 0.00007 | 20.5432 | 113.6581 | 239.4026 | 12.62268 | 7.500 |
| 2026 Apr 25 17:58 | 2026 Apr 25 13:23:18 | 51.9963 | 0.00007 | 20.7361 | 112.1842 | 239.4026 | 12.62268 | 7.500 |
| 2026 Apr 24 17:59 | 2026 Apr 24 12:40:59 | 51.9964 | 0.00007 | 20.9450 | 110.5532 | 239.4026 | 12.62268 | 7.500 |
| 2026 Apr 23 17:57 | 2026 Apr 23 00:34:30 | 51.9967 | 0.00007 | 21.2504 | 108.9008 | 239.4026 | 12.62268 | 7.500 |
| 2026 Apr 22 17:57 | 2026 Apr 21 23:52:11 | 51.9969 | 0.00007 | 21.4594 | 107.8778 | 239.4026 | 12.62268 | 7.500 |
| 2026 Apr 21 17:57 | 2026 Apr 21 06:45:58 | 51.9970 | 0.00007 | 21.6041 | 107.3462 | 239.4026 | 12.62268 | 7.500 |
| 2026 Apr 20 17:57 | 2026 Apr 20 00:21:34 | 51.9973 | 0.00007 | 21.8612 | 106.5841 | 239.4026 | 12.62268 | 7.500 |
| 2026 Apr 19 17:58 | 2026 Apr 18 23:39:14 | 51.9975 | 0.00007 | 22.0702 | 105.6462 | 239.4026 | 12.62268 | 7.500 |
| 2026 Apr 18 17:56 | 2026 Apr 18 00:50:56 | 51.9978 | 0.00007 | 22.2630 | 105.2242 | 239.4026 | 12.62268 | 7.500 |
| 2026 Apr 16 17:57 | 2026 Apr 16 01:20:19 | 51.9980 | 0.00007 | 22.6648 | 103.8440 | 239.4026 | 12.62268 | 7.500 |
| 2026 Apr 14 17:57 | 2026 Apr 14 09:25:47 | 51.9981 | 0.00007 | 23.0024 | 102.0357 | 239.4026 | 12.62268 | 7.500 |
| 2026 Apr 13 17:57 | 2026 Apr 13 01:07:22 | 51.9983 | 0.00006 | 23.2756 | 100.6597 | 239.4026 | 12.62268 | 7.500 |
| 2026 Apr 12 17:57 | 2026 Apr 12 00:25:02 | 51.9983 | 0.00006 | 23.4845 | 99.8922 | 239.4026 | 12.62268 | 7.500 |
| 2026 Apr 11 17:57 | 2026 Apr 11 09:12:50 | 51.9986 | 0.00006 | 23.6131 | 99.3432 | 239.4026 | 12.62268 | 7.500 |
| 2026 Apr 10 17:58 | 2026 Apr 10 02:48:26 | 51.9990 | 0.00006 | 23.8702 | 99.2028 | 239.4026 | 12.62268 | 7.500 |
| 2026 Apr 09 18:01 | 2026 Apr 09 02:06:07 | 51.9992 | 0.00006 | 0.0792 | 98.8002 | 239.4026 | 12.62268 | 7.500 |
| 2026 Apr 08 17:57 | 2026 Apr 08 03:17:49 | 51.9992 | 0.00006 | 0.2720 | 98.4573 | 239.4026 | 12.62268 | 7.500 |
| 2026 Apr 07 17:57 | 2026 Apr 07 04:29:31 | 51.9992 | 0.00006 | 0.4649 | 98.2132 | 239.4026 | 12.62268 | 7.500 |
| 2026 Apr 06 17:57 | 2026 Apr 06 03:47:11 | 51.9991 | 0.00006 | 0.6738 | 98.1172 | 239.4026 | 12.62268 | 7.500 |
| 2026 Apr 05 17:56 | 2026 Apr 05 10:40:58 | 51.9991 | 0.00006 | 0.8185 | 97.9553 | 239.4026 | 12.62268 | 7.500 |
| 2026 Apr 04 17:57 | 2026 Apr 04 04:16:34 | 51.9988 | 0.00006 | 1.0756 | 98.1692 | 239.4026 | 12.62268 | 7.500 |